Time,TemperatureF,DewpointF,PressureIn,WindDirection,WindDirectionDegrees,WindSpeedMPH,WindSpeedGustMPH,Humidity,HourlyPrecipIn,Conditions,Clouds,dailyrainin,SoftwareType,DateUTC
2013-02-05 00:01:00,10.0,4.0,29.94,SE,126,0.0,1.0,76,0.00,,,0.02,,2013-02-05 06:01:00,
2013-02-05 00:11:00,10.0,4.0,29.94,SE,126,0.0,1.0,76,0.00,,,0.02,,2013-02-05 06:11:00,
2013-02-05 00:21:00,10.0,4.0,29.94,SE,128,0.0,2.0,77,0.00,,,0.02,,2013-02-05 06:21:00,
2013-02-05 00:32:00,9.0,3.0,29.93,SE,128,0.0,2.0,77,0.00,,,0.02,,2013-02-05 06:32:00,
2013-02-05 00:42:00,9.0,3.0,29.93,SE,128,0.0,2.0,77,0.00,,,0.02,,2013-02-05 06:42:00,
2013-02-05 00:51:00,9.0,4.0,29.93,SE,128,0.0,1.0,78,0.00,,,0.02,,2013-02-05 06:51:00,
2013-02-05 01:01:00,9.0,3.0,29.92,South,176,0.0,5.0,77,0.00,,,0.02,,2013-02-05 07:01:00,
2013-02-05 01:11:00,9.0,3.0,29.92,South,176,0.0,5.0,77,0.00,,,0.02,,2013-02-05 07:11:00,
2013-02-05 01:22:00,8.0,3.0,29.92,South,176,0.0,0.0,78,0.00,,,0.01,,2013-02-05 07:22:00,
2013-02-05 01:31:00,8.0,3.0,29.92,South,176,0.0,3.0,79,0.00,,,0.01,,2013-02-05 07:31:00,
2013-02-05 01:41:00,8.0,3.0,29.92,South,176,0.0,3.0,79,0.00,,,0.01,,2013-02-05 07:41:00,
2013-02-05 01:52:00,8.0,3.0,29.92,South,176,0.0,2.0,79,0.00,,,0.01,,2013-02-05 07:52:00,
2013-02-05 02:01:00,8.0,3.0,29.91,South,176,0.0,1.0,78,0.00,,,0.01,,2013-02-05 08:01:00,
2013-02-05 02:11:00,8.0,3.0,29.91,South,176,0.0,1.0,78,0.00,,,0.01,,2013-02-05 08:11:00,
2013-02-05 02:21:00,8.0,3.0,29.91,SSE,168,0.0,3.0,78,0.00,,,0.01,,2013-02-05 08:21:00,
2013-02-05 02:31:00,8.0,3.0,29.90,South,169,0.0,2.0,79,0.00,,,0.00,,2013-02-05 08:31:00,
2013-02-05 02:41:00,8.0,3.0,29.90,South,169,0.0,2.0,79,0.00,,,0.00,,2013-02-05 08:41:00,
2013-02-05 02:52:00,8.0,3.0,29.91,SSW,204,0.0,5.0,79,0.00,,,0.00,,2013-02-05 08:52:00,
2013-02-05 03:02:00,9.0,4.0,29.91,SSW,204,1.0,2.0,81,0.00,,,0.00,,2013-02-05 09:02:00,
2013-02-05 03:11:00,9.0,4.0,29.91,SSW,205,1.0,4.0,80,0.00,,,0.00,,2013-02-05 09:11:00,
2013-02-05 03:21:00,9.0,4.0,29.91,SSW,205,1.0,4.0,80,0.00,,,0.00,,2013-02-05 09:21:00,
2013-02-05 03:32:00,9.0,4.0,29.90,SSW,205,0.0,4.0,80,0.00,,,0.00,,2013-02-05 09:32:00,
2013-02-05 03:42:00,9.0,4.0,29.90,SSW,205,0.0,4.0,80,0.00,,,0.00,,2013-02-05 09:42:00,
2013-02-05 03:51:00,11.0,7.0,29.89,SSW,210,5.0,6.0,82,0.00,,,0.00,,2013-02-05 09:51:00,
2013-02-05 04:01:00,13.0,8.0,29.89,SW,223,5.0,7.0,80,0.00,,,0.00,,2013-02-05 10:01:00,
2013-02-05 04:11:00,13.0,8.0,29.88,SW,216,2.0,8.0,80,0.00,,,0.00,,2013-02-05 10:11:00,
2013-02-05 04:21:00,13.0,8.0,29.88,SW,216,2.0,8.0,80,0.00,,,0.00,,2013-02-05 10:21:00,
2013-02-05 04:32:00,13.0,8.0,29.88,SSW,213,2.0,5.0,80,0.00,,,0.00,,2013-02-05 10:32:00,
2013-02-05 04:42:00,13.0,8.0,29.88,SSW,213,2.0,5.0,80,0.00,,,0.00,,2013-02-05 10:42:00,
2013-02-05 04:52:00,13.0,8.0,29.88,SSW,213,2.0,4.0,81,0.00,,,0.00,,2013-02-05 10:52:00,
2013-02-05 05:01:00,14.0,10.0,29.85,SSE,167,2.0,6.0,83,0.00,,,0.00,,2013-02-05 11:01:00,
2013-02-05 05:11:00,14.0,10.0,29.85,SSE,167,2.0,6.0,83,0.00,,,0.00,,2013-02-05 11:11:00,
2013-02-05 05:22:00,13.0,9.0,29.84,South,182,2.0,8.0,85,0.00,,,0.00,,2013-02-05 11:22:00,
2013-02-05 05:32:00,13.0,10.0,29.83,South,183,3.0,11.0,87,0.00,,,0.00,,2013-02-05 11:32:00,
2013-02-05 05:42:00,13.0,10.0,29.83,South,183,3.0,11.0,87,0.00,,,0.00,,2013-02-05 11:42:00,
2013-02-05 05:52:00,14.0,11.0,29.81,SSE,165,8.0,12.0,87,0.00,,,0.00,,2013-02-05 11:52:00,
2013-02-05 06:01:00,14.0,11.0,29.81,SSE,150,2.0,15.0,86,0.00,,,0.00,,2013-02-05 12:01:00,
2013-02-05 06:12:00,14.0,11.0,29.81,SSE,150,2.0,15.0,86,0.00,,,0.00,,2013-02-05 12:12:00,
2013-02-05 06:21:00,14.0,11.0,29.83,SSW,192,4.0,9.0,86,0.00,,,0.00,,2013-02-05 12:21:00,
2013-02-05 06:32:00,14.0,11.0,29.82,SSW,212,4.0,11.0,86,0.00,,,0.00,,2013-02-05 12:32:00,
2013-02-05 06:42:00,14.0,11.0,29.82,SSW,212,4.0,11.0,86,0.00,,,0.00,,2013-02-05 12:42:00,
2013-02-05 06:52:00,14.0,11.0,29.82,SSW,198,4.0,7.0,86,0.00,,,0.00,,2013-02-05 12:52:00,
2013-02-05 07:01:00,14.0,11.0,29.82,SSW,207,4.0,8.0,86,0.00,,,0.00,,2013-02-05 13:01:00,
2013-02-05 07:12:00,14.0,11.0,29.82,SSW,207,4.0,8.0,86,0.00,,,0.00,,2013-02-05 13:12:00,
2013-02-05 07:21:00,15.0,11.0,29.81,SSW,198,3.0,8.0,85,0.00,,,0.00,,2013-02-05 13:21:00,
2013-02-05 07:32:00,15.0,12.0,29.81,SW,218,5.0,9.0,86,0.00,,,0.00,,2013-02-05 13:32:00,
2013-02-05 07:42:00,15.0,12.0,29.81,SW,218,5.0,9.0,86,0.00,,,0.00,,2013-02-05 13:42:00,
2013-02-05 07:52:00,15.0,12.0,29.80,SW,214,5.0,8.0,86,0.00,,,0.00,,2013-02-05 13:52:00,
2013-02-05 08:01:00,15.0,12.0,29.79,SSW,194,3.0,10.0,86,0.00,,,0.00,,2013-02-05 14:01:00,
2013-02-05 08:12:00,15.0,12.0,29.79,SSW,194,3.0,10.0,86,0.00,,,0.00,,2013-02-05 14:12:00,
2013-02-05 08:21:00,16.0,13.0,29.80,SW,219,5.0,11.0,86,0.00,,,0.00,,2013-02-05 14:21:00,
2013-02-05 08:31:00,16.0,13.0,29.80,SW,222,6.0,10.0,86,0.00,,,0.00,,2013-02-05 14:31:00,
2013-02-05 08:42:00,16.0,13.0,29.80,SW,222,6.0,10.0,86,0.00,,,0.00,,2013-02-05 14:42:00,
2013-02-05 08:52:00,17.0,14.0,29.80,SSW,201,7.0,13.0,86,0.00,,,0.00,,2013-02-05 14:52:00,
2013-02-05 09:02:00,17.0,14.0,29.79,SSW,205,6.0,10.0,86,0.00,,,0.00,,2013-02-05 15:02:00,
2013-02-05 09:11:00,17.0,14.0,29.79,SSW,205,6.0,10.0,86,0.00,,,0.00,,2013-02-05 15:11:00,
2013-02-05 09:21:00,17.0,14.0,29.79,SW,228,6.0,13.0,86,0.00,,,0.00,,2013-02-05 15:21:00,
2013-02-05 09:32:00,17.0,14.0,29.79,SSW,193,3.0,13.0,87,0.00,,,0.00,,2013-02-05 15:32:00,
2013-02-05 09:41:00,17.0,14.0,29.79,SSW,193,3.0,13.0,87,0.00,,,0.00,,2013-02-05 15:41:00,
2013-02-05 09:52:00,17.0,14.0,29.77,SSW,202,7.0,9.0,88,0.00,,,0.00,,2013-02-05 15:52:00,
2013-02-05 10:01:00,18.0,15.0,29.78,SW,222,7.0,10.0,89,0.01,,,0.01,,2013-02-05 16:01:00,
2013-02-05 10:11:00,18.0,15.0,29.78,SW,222,7.0,10.0,89,0.01,,,0.01,,2013-02-05 16:11:00,
2013-02-05 10:22:00,18.0,15.0,29.78,SW,225,2.0,10.0,89,0.01,,,0.01,,2013-02-05 16:22:00,
2013-02-05 10:32:00,19.0,16.0,29.79,SSW,213,4.0,7.0,89,0.01,,,0.01,,2013-02-05 16:32:00,
2013-02-05 10:42:00,19.0,16.0,29.79,SSW,213,4.0,7.0,89,0.01,,,0.01,,2013-02-05 16:42:00,
2013-02-05 10:51:00,20.0,17.0,29.79,WSW,243,4.0,7.0,89,0.01,,,0.01,,2013-02-05 16:51:00,
2013-02-05 11:01:00,21.0,18.0,29.79,SW,232,6.0,9.0,88,0.01,,,0.01,,2013-02-05 17:01:00,
2013-02-05 11:11:00,21.0,18.0,29.79,SW,232,6.0,9.0,88,0.01,,,0.01,,2013-02-05 17:11:00,
2013-02-05 11:21:00,22.0,19.0,29.79,WSW,255,5.0,9.0,87,0.00,,,0.01,,2013-02-05 17:21:00,
2013-02-05 11:32:00,22.0,18.0,29.79,West,260,6.0,12.0,86,0.00,,,0.01,,2013-02-05 17:32:00,
2013-02-05 11:42:00,22.0,18.0,29.79,West,260,6.0,12.0,86,0.00,,,0.01,,2013-02-05 17:42:00,
2013-02-05 11:52:00,22.0,18.0,29.79,West,267,3.0,11.0,86,0.00,,,0.01,,2013-02-05 17:52:00,
2013-02-05 12:02:00,23.0,19.0,29.79,SW,224,2.0,10.0,85,0.00,,,0.01,,2013-02-05 18:02:00,
2013-02-05 12:11:00,23.0,19.0,29.79,SW,224,2.0,10.0,85,0.00,,,0.01,,2013-02-05 18:11:00,
2013-02-05 12:22:00,23.0,19.0,29.79,WSW,240,3.0,9.0,86,0.00,,,0.01,,2013-02-05 18:22:00,
2013-02-05 12:32:00,23.0,19.0,29.78,SW,215,3.0,7.0,85,0.00,,,0.01,,2013-02-05 18:32:00,
2013-02-05 12:42:00,23.0,19.0,29.78,SW,215,3.0,7.0,85,0.00,,,0.01,,2013-02-05 18:42:00,
2013-02-05 12:52:00,24.0,20.0,29.79,West,280,1.0,7.0,85,0.00,,,0.01,,2013-02-05 18:52:00,
2013-02-05 13:02:00,24.0,20.0,29.79,WSW,256,4.0,7.0,84,0.00,,,0.01,,2013-02-05 19:02:00,
2013-02-05 13:11:00,24.0,20.0,29.79,WSW,256,4.0,7.0,84,0.00,,,0.01,,2013-02-05 19:11:00,
2013-02-05 13:21:00,25.0,21.0,29.79,WSW,250,5.0,7.0,84,0.00,,,0.01,,2013-02-05 19:21:00,
2013-02-05 13:32:00,26.0,22.0,29.80,WNW,293,6.0,9.0,84,0.00,,,0.01,,2013-02-05 19:32:00,
2013-02-05 13:42:00,26.0,22.0,29.80,WNW,293,6.0,9.0,84,0.00,,,0.01,,2013-02-05 19:42:00,
2013-02-05 13:52:00,26.0,22.0,29.80,West,281,5.0,9.0,84,0.00,,,0.01,,2013-02-05 19:52:00,
2013-02-05 14:01:00,26.0,22.0,29.81,WNW,282,3.0,12.0,83,0.00,,,0.01,,2013-02-05 20:01:00,
2013-02-05 14:11:00,26.0,22.0,29.81,WNW,282,3.0,12.0,83,0.00,,,0.01,,2013-02-05 20:11:00,
2013-02-05 14:21:00,26.0,22.0,29.81,WNW,296,4.0,12.0,84,0.00,,,0.01,,2013-02-05 20:21:00,
2013-02-05 14:32:00,27.0,23.0,29.82,WNW,288,4.0,7.0,83,0.00,,,0.01,,2013-02-05 20:32:00,
2013-02-05 14:42:00,27.0,23.0,29.82,WNW,288,4.0,7.0,83,0.00,,,0.01,,2013-02-05 20:42:00,
2013-02-05 14:52:00,27.0,23.0,29.83,WNW,303,5.0,8.0,84,0.00,,,0.01,,2013-02-05 20:52:00,
2013-02-05 15:02:00,27.0,23.0,29.83,WNW,290,6.0,12.0,83,0.00,,,0.01,,2013-02-05 21:02:00,
2013-02-05 15:11:00,27.0,23.0,29.83,WNW,290,6.0,12.0,83,0.00,,,0.01,,2013-02-05 21:11:00,
2013-02-05 15:21:00,27.0,23.0,29.84,WNW,296,5.0,10.0,83,0.00,,,0.01,,2013-02-05 21:21:00,
2013-02-05 15:32:00,28.0,24.0,29.84,WNW,300,5.0,8.0,84,0.00,,,0.01,,2013-02-05 21:32:00,
2013-02-05 15:42:00,28.0,24.0,29.84,WNW,300,5.0,8.0,84,0.00,,,0.01,,2013-02-05 21:42:00,
2013-02-05 15:51:00,28.0,23.0,29.85,NW,306,6.0,15.0,82,0.00,,,0.01,,2013-02-05 21:51:00,
2013-02-05 16:01:00,28.0,23.0,29.86,NW,309,7.0,14.0,82,0.00,,,0.01,,2013-02-05 22:01:00,
2013-02-05 16:11:00,28.0,23.0,29.86,NW,309,7.0,14.0,82,0.00,,,0.01,,2013-02-05 22:11:00,
2013-02-05 16:21:00,28.0,23.0,29.87,NW,325,7.0,17.0,81,0.00,,,0.01,,2013-02-05 22:21:00,
2013-02-05 16:32:00,28.0,23.0,29.88,NNW,339,11.0,18.0,80,0.00,,,0.01,,2013-02-05 22:32:00,
2013-02-05 16:42:00,28.0,23.0,29.88,NNW,339,11.0,18.0,80,0.00,,,0.01,,2013-02-05 22:42:00,
2013-02-05 16:51:00,27.0,22.0,29.89,NNW,331,9.0,15.0,80,0.00,,,0.01,,2013-02-05 22:51:00,
2013-02-05 17:02:00,27.0,22.0,29.90,NW,316,7.0,16.0,80,0.00,,,0.01,,2013-02-05 23:02:00,
2013-02-05 17:11:00,27.0,22.0,29.90,NW,316,7.0,16.0,80,0.00,,,0.01,,2013-02-05 23:11:00,
2013-02-05 17:21:00,27.0,22.0,29.91,NW,315,10.0,12.0,80,0.00,,,0.01,,2013-02-05 23:21:00,
2013-02-05 17:32:00,27.0,22.0,29.93,WNW,283,8.0,11.0,80,0.00,,,0.01,,2013-02-05 23:32:00,
2013-02-05 17:42:00,27.0,22.0,29.93,WNW,283,8.0,11.0,80,0.00,,,0.01,,2013-02-05 23:42:00,
2013-02-05 17:52:00,27.0,22.0,29.93,NNW,328,5.0,13.0,80,0.00,,,0.01,,2013-02-05 23:52:00,
2013-02-05 18:02:00,26.0,20.0,29.95,NW,307,7.0,11.0,79,0.00,,,0.01,,2013-02-06 00:02:00,
2013-02-05 18:11:00,26.0,20.0,29.95,NW,307,7.0,11.0,79,0.00,,,0.01,,2013-02-06 00:11:00,
2013-02-05 18:21:00,26.0,20.0,29.96,NNW,334,8.0,14.0,77,0.00,,,0.01,,2013-02-06 00:21:00,
2013-02-05 18:32:00,26.0,20.0,29.97,NNW,336,4.0,14.0,77,0.00,,,0.01,,2013-02-06 00:32:00,
2013-02-05 18:42:00,26.0,20.0,29.97,NNW,336,4.0,14.0,77,0.00,,,0.01,,2013-02-06 00:42:00,
2013-02-05 18:52:00,25.0,19.0,29.98,WNW,298,8.0,16.0,77,0.00,,,0.01,,2013-02-06 00:52:00,
2013-02-05 19:02:00,24.0,18.0,29.99,NW,320,7.0,12.0,77,0.00,,,0.01,,2013-02-06 01:02:00,
2013-02-05 19:11:00,24.0,18.0,29.99,NW,320,7.0,12.0,77,0.00,,,0.01,,2013-02-06 01:11:00,
2013-02-05 19:21:00,24.0,18.0,29.99,NNW,340,8.0,12.0,77,0.00,,,0.01,,2013-02-06 01:21:00,
2013-02-05 19:32:00,24.0,18.0,30.00,NNW,335,5.0,8.0,78,0.00,,,0.01,,2013-02-06 01:32:00,
2013-02-05 19:42:00,24.0,18.0,30.00,NNW,335,5.0,8.0,78,0.00,,,0.01,,2013-02-06 01:42:00,
2013-02-05 19:52:00,23.0,17.0,30.02,NW,315,6.0,10.0,78,0.00,,,0.01,,2013-02-06 01:52:00,
2013-02-05 20:01:00,23.0,17.0,30.02,NW,322,8.0,12.0,77,0.00,,,0.01,,2013-02-06 02:01:00,
2013-02-05 20:11:00,23.0,17.0,30.02,NW,322,8.0,12.0,77,0.00,,,0.01,,2013-02-06 02:11:00,
2013-02-05 20:22:00,23.0,17.0,30.02,NNW,337,8.0,12.0,76,0.00,,,0.01,,2013-02-06 02:22:00,
2013-02-05 20:32:00,23.0,17.0,30.04,West,269,7.0,12.0,76,0.00,,,0.01,,2013-02-06 02:32:00,
2013-02-05 20:42:00,23.0,17.0,30.04,West,269,7.0,12.0,76,0.00,,,0.01,,2013-02-06 02:42:00,
2013-02-05 20:52:00,22.0,16.0,30.04,NNW,329,3.0,8.0,76,0.00,,,0.01,,2013-02-06 02:52:00,
2013-02-05 21:02:00,22.0,16.0,30.05,WNW,302,4.0,9.0,76,0.00,,,0.01,,2013-02-06 03:02:00,
2013-02-05 21:12:00,22.0,16.0,30.05,WNW,302,4.0,9.0,76,0.00,,,0.01,,2013-02-06 03:12:00,
2013-02-05 21:21:00,22.0,15.0,30.05,NNW,329,6.0,14.0,75,0.00,,,0.01,,2013-02-06 03:21:00,
2013-02-05 21:32:00,22.0,15.0,30.05,WNW,301,6.0,11.0,74,0.00,,,0.01,,2013-02-06 03:32:00,
2013-02-05 21:42:00,22.0,15.0,30.05,WNW,301,6.0,11.0,74,0.00,,,0.01,,2013-02-06 03:42:00,
2013-02-05 21:53:00,22.0,15.0,30.06,NNW,330,5.0,12.0,73,0.00,,,0.01,,2013-02-06 03:53:00,
2013-02-05 22:02:00,22.0,15.0,30.07,NW,317,6.0,14.0,73,0.00,,,0.01,,2013-02-06 04:02:00,
2013-02-05 22:11:00,22.0,15.0,30.07,NW,317,6.0,14.0,73,0.00,,,0.01,,2013-02-06 04:11:00,
2013-02-05 22:21:00,21.0,14.0,30.07,NW,322,7.0,11.0,74,0.00,,,0.01,,2013-02-06 04:21:00,
2013-02-05 22:31:00,21.0,14.0,30.07,NNW,336,5.0,8.0,74,0.00,,,0.01,,2013-02-06 04:31:00,
2013-02-05 22:42:00,21.0,14.0,30.07,NNW,336,5.0,8.0,74,0.00,,,0.01,,2013-02-06 04:42:00,
2013-02-05 22:52:00,20.0,13.0,30.07,NNW,329,3.0,5.0,75,0.00,,,0.01,,2013-02-06 04:52:00,
2013-02-05 23:02:00,19.0,13.0,30.07,NNW,335,1.0,4.0,76,0.00,,,0.01,,2013-02-06 05:02:00,
2013-02-05 23:12:00,19.0,13.0,30.07,NNW,335,1.0,4.0,76,0.00,,,0.01,,2013-02-06 05:12:00,
2013-02-05 23:22:00,18.0,12.0,30.08,NNW,335,0.0,2.0,78,0.00,,,0.01,,2013-02-06 05:22:00,
2013-02-05 23:31:00,18.0,12.0,30.08,NNW,335,0.0,1.0,78,0.00,,,0.01,,2013-02-06 05:31:00,
2013-02-05 23:41:00,18.0,12.0,30.08,NNW,335,0.0,1.0,78,0.00,,,0.01,,2013-02-06 05:41:00,
2013-02-05 23:52:00,16.0,11.0,30.10,NNW,335,0.0,0.0,79,0.00,,,0.01,,2013-02-06 05:52:00,